Location: Banksville Park
(38.5557°N, 75.1182°W)
Time: 18:40:49
(UTC+00:00)

SAR-Lupe-1 - Pass Details

Date: 19 January 2021
Orbit: 482 x 484 km, 98.2° (Epoch: 02 March)

Event Time Altitude Azimuth Distance (km) Brightness Sun altitude
Exits shadow 00:15:42 13° 340° (NNW) 1,488 6.6 -24.9°
Maximum altitude 00:18:07 24° 290° (WNW) 1,026 6.3 -25.3°
Drops below altitude 10° 00:21:03 10° 234° (SW) 1,657 7.5 -25.9°
Sets 00:23:20 0° 221° (SW) 2,532 8.4 -26.3°
